This is the latest recevied weather packets stored in our database for station/object DM8MH-13. If no packets are shown the sender has not sent any weather packets the latest 10 day(s).
| Time | Temp. | Humidity | Pressure | Rain* | Wind** | Luminosity | Snow |
|---|---|---|---|---|---|---|---|
| 1788455470 | 20.56° C | 76% | 1016.4 hPa | 0 mm | - | 55 W/m² | - |
| 1788454869 | 20.56° C | 76% | 1016.3 hPa | 0 mm | - | 48 W/m² | - |
| 1788454270 | 20.56° C | 75% | 1016.4 hPa | 0 mm | - | 84 W/m² | - |
| 1788453670 | 20.56° C | 75% | 1016.3 hPa | 0 mm | - | 152 W/m² | - |
| 1788453071 | 20.56° C | 75% | 1016.3 hPa | 0 mm | - | 97 W/m² | - |
| 1788452471 | 20.56° C | 76% | 1016.2 hPa | 0 mm | - | 87 W/m² | - |
| 1788451870 | 20.56° C | 76% | 1016.3 hPa | 0 mm | - | 61 W/m² | - |
| 1788451270 | 20° C | 76% | 1016.2 hPa | 0 mm | - | 67 W/m² | - |
| 1788450670 | 20.56° C | 76% | 1016.3 hPa | 0 mm | - | 333 W/m² | - |
| 1788450070 | 20° C | 77% | 1016.6 hPa | 0 mm | - | 214 W/m² | - |
| 1788449470 | 19.44° C | 80% | 1016.7 hPa | 0 mm | - | 326 W/m² | - |
| 1788448871 | 18.89° C | 81% | 1016.7 hPa | 0 mm | - | 196 W/m² | - |
| 1788448270 | 18.89° C | 82% | 1016.7 hPa | 0 mm | - | 84 W/m² | - |
| 1788447669 | 18.89° C | 82% | 1016.9 hPa | 0 mm | - | 83 W/m² | - |
| 1788447070 | 18.33° C | 83% | 1016.9 hPa | 0 mm | - | 143 W/m² | - |
| 1788446469 | 18.33° C | 84% | 1016.8 hPa | 0 mm | - | 227 W/m² | - |
| 1788445871 | 18.33° C | 84% | 1017 hPa | 0 mm | - | 74 W/m² | - |
| 1788445270 | 18.33° C | 83% | 1016.9 hPa | 0 mm | - | 65 W/m² | - |
| 1788444670 | 18.89° C | 81% | 1016.9 hPa | 0 mm | - | 109 W/m² | - |
| 1788444092 | 18.89° C | 79% | 1016.6 hPa | 0.25 mm | - | 140 W/m² | - |
| 1788443470 | 18.89° C | 80% | 1016.7 hPa | 0.51 mm | - | 173 W/m² | - |
| 1788442869 | 18.89° C | 80% | 1016.8 hPa | 0.51 mm | - | 149 W/m² | - |
| 1788442270 | 18.89° C | 79% | 1016.6 hPa | 0.51 mm | - | 182 W/m² | - |
| 1788441671 | 18.89° C | 79% | 1016.7 hPa | 0.51 mm | - | 177 W/m² | - |
| 1788441070 | 18.89° C | 80% | 1016.6 hPa | 0.51 mm | - | 76 W/m² | - |
* Rain latest hour (hover to see other rain measurements)
** Current wind speed in m/s (hover to see current wind gust speed)